Check out our new BloomSky Weather System.

Active alerts

Houston, TX
  Details for Houston, TX Dense Fog Advisory


Thunder radar  blitzortung!


Rain radar more information rain snow radar


Visit our other weather sites:

Template documentation
and downloads

And another site



Weather Underground History page Text

Daily Summary for May 6, 2017 Units:  Metric    English   Both
« Previous Day
Next Day »
Daily Weekly Monthly Yearly Custom
  High: Low: Average:
Temperature: 29.8 °C 11.5 °C 21.6 °C
Dew Point: 15 °C 10.1 °C 11.9 °C
Humidity: 94 % 30 % 59 %
Wind Speed: 9.7 km/h 0 km/h 1.6 km/h
Wind Gust: 16.1 km/h - -
Wind:- - SSW
Pressure: 1016.5 hPa 1011.7 hPa -
Precipitation: 0 mm    
Historical Graphs
 
 
Tabular Data for May 6, 2017
Time Temperature Dew Point Pressure Wind Wind Speed Wind Gust Humidity Rainfall Rate (Hourly)
00:02 14.8 °C 10.2 °C 1014.8 hPa Calm     74 % 0 mm
00:07 14.8 °C 10.4 °C 1014.8 hPa Calm     75 % 0 mm
00:12 14.8 °C 10.4 °C 1014.8 hPa Calm     75 % 0 mm
00:17 14.6 °C 10.4 °C 1014.8 hPa Calm     76 % 0 mm
00:22 14.4 °C 10.4 °C 1014.8 hPa Calm     77 % 0 mm
00:27 14.4 °C 10.6 °C 1014.8 hPa Calm     78 % 0 mm
00:32 14.3 °C 10.5 °C 1014.8 hPa Calm     78 % 0 mm
00:37 14.4 °C 11.2 °C 1014.8 hPa Calm     81 % 0 mm
00:42 14.7 °C 11.3 °C 1014.8 hPa Calm   1.6 km/h 80 % 0 mm
00:47 14.6 °C 11.2 °C 1014.8 hPa Calm   1.6 km/h 80 % 0 mm
00:52 14.6 °C 11.4 °C 1014.8 hPa Calm   1.6 km/h 81 % 0 mm
00:57 14.6 °C 11.4 °C 1014.8 hPa Calm     81 % 0 mm
01:02 14.4 °C 11.2 °C 1014.8 hPa Calm     81 % 0 mm
01:08 14.4 °C 11.4 °C 1014.8 hPa Calm     82 % 0 mm
01:13 14.3 °C 11.5 °C 1014.8 hPa Calm     83 % 0 mm
01:18 14.4 °C 11.5 °C 1014.8 hPa Calm     83 % 0 mm
01:23 14.3 °C 11.5 °C 1014.8 hPa Calm     83 % 0 mm
01:28 14.3 °C 11.5 °C 1014.8 hPa Calm     83 % 0 mm
01:33 14.2 °C 11.4 °C 1015.1 hPa Calm     83 % 0 mm
01:38 14.2 °C 11.5 °C 1015.1 hPa Calm     84 % 0 mm
01:43 14.1 °C 11.4 °C 1014.8 hPa Calm     84 % 0 mm
01:48 13.9 °C 11.2 °C 1014.8 hPa Calm     84 % 0 mm
01:53 13.8 °C 11.3 °C 1014.8 hPa Calm     85 % 0 mm
01:58 13.7 °C 11.2 °C 1014.8 hPa Calm     85 % 0 mm
02:03 13.6 °C 11.1 °C 1014.8 hPa Calm     85 % 0 mm
02:08 13.6 °C 11.3 °C 1014.4 hPa Calm     86 % 0 mm
02:13 13.6 °C 11.3 °C 1014.4 hPa Calm     86 % 0 mm
02:18 13.6 °C 11.5 °C 1014.4 hPa Calm     87 % 0 mm
02:23 13.6 °C 11.5 °C 1014.4 hPa Calm   1.6 km/h 87 % 0 mm
02:28 13.4 °C 11.3 °C 1014.4 hPa Calm   1.6 km/h 87 % 0 mm
02:33 13.4 °C 11.3 °C 1014.4 hPa Calm   1.6 km/h 87 % 0 mm
02:38 13.3 °C 11.2 °C 1014.4 hPa Calm     87 % 0 mm
02:40 13.3 °C 11.2 °C 1014.4 hPa Calm     87 % 0 mm
02:45 13.1 °C 10.8 °C 1014.4 hPa Calm     86 % 0 mm
02:50 12.8 °C 10.9 °C 1014.4 hPa Calm     88 % 0 mm
02:55 13 °C 11.1 °C 1014.4 hPa Calm     88 % 0 mm
03:00 13 °C 11.1 °C 1014.4 hPa Calm     88 % 0 mm
03:05 13 °C 11.2 °C 1014.4 hPa Calm     89 % 0 mm
03:10 13 °C 11.2 °C 1014.4 hPa Calm     89 % 0 mm
03:15 13 °C 11.2 °C 1014.4 hPa Calm     89 % 0 mm
03:20 12.9 °C 11.1 °C 1014.4 hPa Calm     89 % 0 mm
03:25 12.9 °C 11.1 °C 1014.4 hPa Calm     89 % 0 mm
03:30 12.9 °C 11.1 °C 1014.4 hPa Calm     89 % 0 mm
03:33 12.8 °C 11 °C 1014.4 hPa Calm     89 % 0 mm
03:38 12.7 °C 10.9 °C 1014.4 hPa Calm     89 % 0 mm
03:43 12.6 °C 10.8 °C 1014.4 hPa Calm     89 % 0 mm
03:48 12.6 °C 11 °C 1014.4 hPa Calm     90 % 0 mm
03:53 12.6 °C 10.8 °C 1014.4 hPa Calm     89 % 0 mm
03:58 12.6 °C 10.8 °C 1014.4 hPa Calm     89 % 0 mm
04:03 12.5 °C 10.9 °C 1014.4 hPa Calm     90 % 0 mm
04:08 12.4 °C 10.8 °C 1014.4 hPa Calm     90 % 0 mm
04:13 12.5 °C 11.1 °C 1014.4 hPa NE 1.6 km/h 1.6 km/h 91 % 0 mm
04:18 12.8 °C 11.4 °C 1014.4 hPa Calm   1.6 km/h 91 % 0 mm
04:23 12.8 °C 11.2 °C 1014.4 hPa Calm   1.6 km/h 90 % 0 mm
04:28 12.7 °C 11.1 °C 1014.4 hPa Calm   1.6 km/h 90 % 0 mm
04:33 12.5 °C 10.9 °C 1014.4 hPa Calm   1.6 km/h 90 % 0 mm
04:38 12.3 °C 10.7 °C 1014.4 hPa Calm     90 % 0 mm
04:43 12.2 °C 10.6 °C 1014.4 hPa Calm     90 % 0 mm
04:48 12.2 °C 10.8 °C 1014.4 hPa Calm     91 % 0 mm
04:49 12.1 °C 10.7 °C 1014.4 hPa Calm     91 % 0 mm
04:54 12.2 °C 10.8 °C 1014.4 hPa Calm     91 % 0 mm
04:59 12.2 °C 10.8 °C 1014.4 hPa Calm     91 % 0 mm
05:04 12.1 °C 10.7 °C 1014.4 hPa NNW 1.6 km/h   91 % 0 mm
05:09 12.2 °C 10.8 °C 1014.4 hPa Calm   1.6 km/h 91 % 0 mm
05:14 12.2 °C 10.8 °C 1014.4 hPa Calm   1.6 km/h 91 % 0 mm
05:19 12.2 °C 10.8 °C 1014.4 hPa Calm   3.2 km/h 91 % 0 mm
05:24 12.1 °C 10.7 °C 1014.4 hPa Calm   3.2 km/h 91 % 0 mm
05:29 12.1 °C 10.7 °C 1014.4 hPa Calm   3.2 km/h 91 % 0 mm
05:34 11.9 °C 10.5 °C 1014.8 hPa Calm   3.2 km/h 91 % 0 mm
05:39 11.7 °C 10.3 °C 1014.8 hPa Calm     91 % 0 mm
05:44 11.6 °C 10.2 °C 1014.8 hPa Calm     91 % 0 mm
05:49 11.6 °C 10.3 °C 1014.8 hPa Calm     92 % 0 mm
05:54 11.6 °C 10.3 °C 1014.8 hPa Calm     92 % 0 mm
05:59 11.6 °C 10.3 °C 1014.4 hPa Calm     92 % 0 mm
06:04 11.6 °C 10.3 °C 1014.4 hPa Calm     92 % 0 mm
06:09 11.6 °C 10.5 °C 1014.8 hPa Calm     93 % 0 mm
06:14 11.7 °C 10.6 °C 1014.8 hPa Calm     93 % 0 mm
06:19 11.7 °C 10.6 °C 1014.8 hPa Calm     93 % 0 mm
06:24 11.7 °C 10.6 °C 1014.8 hPa Calm     93 % 0 mm
06:29 11.6 °C 10.5 °C 1015.1 hPa Calm   1.6 km/h 93 % 0 mm
06:34 11.6 °C 10.5 °C 1015.1 hPa Calm   1.6 km/h 93 % 0 mm
06:39 11.7 °C 10.6 °C 1015.1 hPa Calm   1.6 km/h 93 % 0 mm
06:44 11.7 °C 10.6 °C 1015.5 hPa Calm     93 % 0 mm
06:49 11.6 °C 10.5 °C 1015.5 hPa Calm     93 % 0 mm
06:54 11.5 °C 10.4 °C 1015.5 hPa Calm     93 % 0 mm
06:59 11.5 °C 10.4 °C 1015.5 hPa Calm     93 % 0 mm
07:00 11.5 °C 10.4 °C 1015.5 hPa Calm     93 % 0 mm
07:05 11.6 °C 10.7 °C 1015.5 hPa Calm     94 % 0 mm
07:06 11.6 °C 10.7 °C 1015.5 hPa Calm     94 % 0 mm
07:11 11.6 °C 10.7 °C 1015.5 hPa Calm     94 % 0 mm
07:16 11.8 °C 10.9 °C 1015.5 hPa Calm     94 % 0 mm
07:21 12.3 °C 11.4 °C 1015.5 hPa Calm     94 % 0 mm
07:26 13.2 °C 12.3 °C 1015.8 hPa Calm     94 % 0 mm
07:31 13.9 °C 12.8 °C 1015.8 hPa Calm     93 % 0 mm
07:36 14.2 °C 13.1 °C 1015.8 hPa Calm     93 % 0 mm
07:41 14.6 °C 13.3 °C 1015.8 hPa Calm     92 % 0 mm
07:46 15.2 °C 14.1 °C 1015.8 hPa Calm   1.6 km/h 93 % 0 mm
07:47 15.3 °C 14.2 °C 1015.8 hPa Calm   1.6 km/h 93 % 0 mm
07:52 16.2 °C 14.9 °C 1015.8 hPa Calm   1.6 km/h 92 % 0 mm
07:57 16.8 °C 15 °C 1016.1 hPa Calm   1.6 km/h 89 % 0 mm
08:02 17.2 °C 14.7 °C 1016.1 hPa WSW 1.6 km/h 3.2 km/h 85 % 0 mm
08:07 17.3 °C 14.4 °C 1016.1 hPa Calm   3.2 km/h 83 % 0 mm
08:12 17.6 °C 14.1 °C 1016.1 hPa Calm   4.8 km/h 80 % 0 mm
08:17 17.8 °C 13.5 °C 1016.1 hPa NW 1.6 km/h 4.8 km/h 76 % 0 mm
08:22 18 °C 13.5 °C 1016.1 hPa Calm   4.8 km/h 75 % 0 mm
08:27 18.4 °C 14.1 °C 1016.5 hPa Calm   4.8 km/h 76 % 0 mm
08:32 19.1 °C 14.4 °C 1016.5 hPa WNW 1.6 km/h 4.8 km/h 74 % 0 mm
08:37 19.2 °C 13.8 °C 1016.5 hPa Calm   4.8 km/h 71 % 0 mm
08:42 19.6 °C 14 °C 1016.5 hPa Calm   3.2 km/h 70 % 0 mm
08:47 19.9 °C 13.8 °C 1016.5 hPa Calm   3.2 km/h 68 % 0 mm
08:52 20.1 °C 13.5 °C 1016.5 hPa West 1.6 km/h 3.2 km/h 66 % 0 mm
08:57 20.3 °C 13.7 °C 1016.5 hPa Calm   3.2 km/h 66 % 0 mm
09:02 20.9 °C 14.3 °C 1016.5 hPa Calm   3.2 km/h 66 % 0 mm
09:07 21.4 °C 14.1 °C 1016.5 hPa Calm   3.2 km/h 63 % 0 mm
09:12 21.4 °C 13.6 °C 1016.5 hPa Calm   3.2 km/h 61 % 0 mm
09:17 21.5 °C 13.1 °C 1016.5 hPa Calm   3.2 km/h 59 % 0 mm
09:22 21.8 °C 13.2 °C 1016.5 hPa SE 1.6 km/h 4.8 km/h 58 % 0 mm
09:27 22.3 °C 13.6 °C 1016.5 hPa Calm   4.8 km/h 58 % 0 mm
09:32 22.8 °C 13.3 °C 1016.5 hPa Calm   4.8 km/h 55 % 0 mm
09:37 23 °C 13.7 °C 1016.5 hPa SSW 3.2 km/h 3.2 km/h 56 % 0 mm
09:42 23.5 °C 13.9 °C 1016.5 hPa SSW 1.6 km/h 3.2 km/h 55 % 0 mm
09:47 24.2 °C 14 °C 1016.5 hPa SE 1.6 km/h 4.8 km/h 53 % 0 mm
09:52 24.6 °C 13.8 °C 1016.5 hPa East 3.2 km/h 4.8 km/h 51 % 0 mm
09:54 24.7 °C 13.3 °C 1016.5 hPa ESE 1.6 km/h 4.8 km/h 49 % 0 mm
10:00 24.8 °C 14.3 °C 1016.5 hPa SE 1.6 km/h 4.8 km/h 52 % 0 mm
10:05 25.2 °C 13.1 °C 1016.5 hPa SSW 1.6 km/h 4.8 km/h 47 % 0 mm
10:10 25.3 °C 13.2 °C 1016.5 hPa SSW 1.6 km/h 4.8 km/h 47 % 0 mm
10:15 25.6 °C 13.5 °C 1016.5 hPa Calm   8 km/h 47 % 0 mm
10:20 26 °C 13.5 °C 1016.5 hPa Calm   8 km/h 46 % 0 mm
10:25 26.4 °C 12.5 °C 1016.5 hPa South 3.2 km/h 8 km/h 42 % 0 mm
10:29 26.4 °C 13.5 °C 1016.5 hPa SW 3.2 km/h 4.8 km/h 45 % 0 mm
10:31 26.6 °C 13.3 °C 1016.5 hPa SSW 1.6 km/h 4.8 km/h 44 % 0 mm
10:36 26.8 °C 12.4 °C 1016.5 hPa SSE 4.8 km/h 6.4 km/h 41 % 0 mm
10:41 26.4 °C 11.3 °C 1016.5 hPa SSE 3.2 km/h 9.7 km/h 39 % 0 mm
10:46 26.3 °C 12 °C 1016.5 hPa South 6.4 km/h 9.7 km/h 41 % 0 mm
10:47 26.3 °C 11.6 °C 1016.5 hPa ESE 3.2 km/h 9.7 km/h 40 % 0 mm
10:52 26.2 °C 12.6 °C 1016.5 hPa Calm   11.3 km/h 43 % 0 mm
10:57 26.5 °C 12.5 °C 1016.1 hPa NNE 1.6 km/h 11.3 km/h 42 % 0 mm
11:02 26.7 °C 12 °C 1016.5 hPa West 3.2 km/h 11.3 km/h 40 % 0 mm
11:07 26.8 °C 11.3 °C 1016.5 hPa WNW 1.6 km/h 8 km/h 38 % 0 mm
11:12 26.9 °C 11 °C 1016.5 hPa Calm   8 km/h 37 % 0 mm
11:17 26.9 °C 11 °C 1016.5 hPa SSW 3.2 km/h 9.7 km/h 37 % 0 mm
11:22 26.7 °C 12.4 °C 1016.1 hPa Calm   9.7 km/h 41 % 0 mm
11:27 27.1 °C 12 °C 1016.1 hPa SW 6.4 km/h 9.7 km/h 39 % 0 mm
11:32 27.2 °C 10.8 °C 1016.1 hPa South 3.2 km/h 9.7 km/h 36 % 0 mm
11:37 27.6 °C 11.6 °C 1016.1 hPa NNW 3.2 km/h 9.7 km/h 37 % 0 mm
11:42 27.8 °C 10.9 °C 1016.1 hPa SW 6.4 km/h 9.7 km/h 35 % 0 mm
11:47 27.8 °C 12.2 °C 1016.1 hPa West 1.6 km/h 8 km/h 38 % 0 mm
11:52 27.2 °C 10.4 °C 1016.1 hPa WSW 1.6 km/h 8 km/h 35 % 0 mm
11:57 26.9 °C 10.1 °C 1016.1 hPa NNW 3.2 km/h 9.7 km/h 35 % 0 mm
12:02 26.8 °C 10.1 °C 1015.8 hPa Calm   9.7 km/h 35 % 0 mm
12:07 26.9 °C 10.6 °C 1015.8 hPa NNW 9.7 km/h 9.7 km/h 36 % 0 mm
12:12 26.6 °C 11.1 °C 1015.8 hPa NW 1.6 km/h 11.3 km/h 38 % 0 mm
12:17 26.7 °C 10.4 °C 1015.8 hPa Calm   11.3 km/h 36 % 0 mm
12:22 27.2 °C 11.6 °C 1015.8 hPa NNW 4.8 km/h 11.3 km/h 38 % 0 mm
12:27 27.1 °C 10.7 °C 1015.8 hPa Calm   8 km/h 36 % 0 mm
12:32 27.7 °C 11.3 °C 1015.8 hPa Calm   8 km/h 36 % 0 mm
12:37 27.9 °C 11 °C 1015.8 hPa Calm   8 km/h 35 % 0 mm
12:42 27.8 °C 11.4 °C 1015.8 hPa SSE 4.8 km/h 8 km/h 36 % 0 mm
12:47 27.7 °C 11.3 °C 1015.5 hPa Calm   8 km/h 36 % 0 mm
12:52 28.1 °C 11.6 °C 1015.8 hPa WNW 4.8 km/h 12.9 km/h 36 % 0 mm
12:57 27.8 °C 11.4 °C 1015.5 hPa SE 3.2 km/h 12.9 km/h 36 % 0 mm
13:02 28 °C 11.5 °C 1015.5 hPa SSE 3.2 km/h 12.9 km/h 36 % 0 mm
13:07 28.2 °C 11.7 °C 1015.5 hPa SSE 4.8 km/h 11.3 km/h 36 % 0 mm
13:12 28.3 °C 10.9 °C 1015.5 hPa SE 3.2 km/h 11.3 km/h 34 % 0 mm
13:17 28.2 °C 10.4 °C 1015.5 hPa South 4.8 km/h 14.5 km/h 33 % 0 mm
13:22 28.4 °C 11 °C 1015.1 hPa ESE 3.2 km/h 14.5 km/h 34 % 0 mm
13:27 28.4 °C 12.7 °C 1015.1 hPa Calm   14.5 km/h 38 % 0 mm
13:32 28.8 °C 12.7 °C 1015.1 hPa SSW 1.6 km/h 9.7 km/h 37 % 0 mm
13:37 29.4 °C 12.8 °C 1015.1 hPa SW 4.8 km/h 8 km/h 36 % 0 mm
13:42 29.6 °C 13.4 °C 1015.1 hPa WNW 6.4 km/h 8 km/h 37 % 0 mm
13:47 29.1 °C 11.2 °C 1015.1 hPa West 3.2 km/h 9.7 km/h 33 % 0 mm
13:52 28.7 °C 10.8 °C 1015.1 hPa WNW 1.6 km/h 9.7 km/h 33 % 0 mm
13:57 28.7 °C 13 °C 1014.8 hPa SSW 1.6 km/h 9.7 km/h 38 % 0 mm
14:02 28.7 °C 11.3 °C 1014.8 hPa WNW 3.2 km/h 8 km/h 34 % 0 mm
14:07 28.4 °C 10.1 °C 1014.8 hPa SSW 1.6 km/h 8 km/h 32 % 0 mm
14:12 28.5 °C 12 °C 1014.8 hPa West 3.2 km/h 9.7 km/h 36 % 0 mm
14:17 28.8 °C 11.8 °C 1014.8 hPa ENE 3.2 km/h 9.7 km/h 35 % 0 mm
14:22 28.9 °C 11.9 °C 1014.4 hPa SSE 8 km/h 9.7 km/h 35 % 0 mm
14:27 28.8 °C 11.8 °C 1014.4 hPa SW 8 km/h 12.9 km/h 35 % 0 mm
14:32 28.9 °C 11 °C 1014.4 hPa Calm   12.9 km/h 33 % 0 mm
14:37 29.1 °C 11.2 °C 1014.4 hPa SE 3.2 km/h 12.9 km/h 33 % 0 mm
14:42 28.9 °C 10.5 °C 1014.4 hPa East 9.7 km/h 11.3 km/h 32 % 0 mm
14:47 28.6 °C 10.3 °C 1014.4 hPa South 3.2 km/h 9.7 km/h 32 % 0 mm
14:52 28.6 °C 10.3 °C 1014.1 hPa SE 4.8 km/h 16.1 km/h 32 % 0 mm
14:57 28.7 °C 11.3 °C 1014.1 hPa SSE 1.6 km/h 16.1 km/h 34 % 0 mm
15:02 29.1 °C 11.6 °C 1014.1 hPa NW 3.2 km/h 16.1 km/h 34 % 0 mm
15:07 29.3 °C 10.9 °C 1014.1 hPa South 1.6 km/h 11.3 km/h 32 % 0 mm
15:12 29.4 °C 11 °C 1013.8 hPa South 6.4 km/h 14.5 km/h 32 % 0 mm
15:17 29.6 °C 12.1 °C 1013.8 hPa SSW 4.8 km/h 14.5 km/h 34 % 0 mm
15:22 29.5 °C 11.5 °C 1013.8 hPa WNW 1.6 km/h 14.5 km/h 33 % 0 mm
15:27 29.4 °C 11.4 °C 1013.8 hPa Calm   11.3 km/h 33 % 0 mm
15:33 29.4 °C 11.4 °C 1013.4 hPa West 3.2 km/h 11.3 km/h 33 % 0 mm
15:38 29.4 °C 11.9 °C 1013.4 hPa SW 4.8 km/h 11.3 km/h 34 % 0 mm
15:43 29.6 °C 12.1 °C 1013.4 hPa SW 6.4 km/h 14.5 km/h 34 % 0 mm
15:48 29.4 °C 11.4 °C 1013.4 hPa Calm   14.5 km/h 33 % 0 mm
15:53 29.7 °C 10.8 °C 1013.1 hPa Calm   14.5 km/h 31 % 0 mm
15:58 29.6 °C 10.7 °C 1013.1 hPa WNW 6.4 km/h 12.9 km/h 31 % 0 mm
16:03 29.1 °C 11.2 °C 1013.1 hPa NW 8 km/h 8 km/h 33 % 0 mm
16:08 29.1 °C 11.6 °C 1013.1 hPa WSW 3.2 km/h 12.9 km/h 34 % 0 mm
16:13 29 °C 10.6 °C 1012.8 hPa NW 8 km/h 12.9 km/h 32 % 0 mm
16:18 28.9 °C 11 °C 1012.8 hPa NNW 1.6 km/h 12.9 km/h 33 % 0 mm
16:23 28.9 °C 11 °C 1012.8 hPa SE 4.8 km/h 11.3 km/h 33 % 0 mm
16:28 29.1 °C 12.5 °C 1012.8 hPa SSW 1.6 km/h 9.7 km/h 36 % 0 mm
16:33 29.3 °C 10.9 °C 1012.8 hPa West 1.6 km/h 8 km/h 32 % 0 mm
16:38 29.2 °C 10.8 °C 1012.8 hPa West 1.6 km/h 14.5 km/h 32 % 0 mm
16:43 29.2 °C 11.3 °C 1012.8 hPa Calm   14.5 km/h 33 % 0 mm
16:48 29.4 °C 11 °C 1012.8 hPa SW 1.6 km/h 14.5 km/h 32 % 0 mm
16:53 29.4 °C 11.9 °C 1012.8 hPa South 1.6 km/h 12.9 km/h 34 % 0 mm
16:58 29.3 °C 10.9 °C 1012.4 hPa East 1.6 km/h 12.9 km/h 32 % 0 mm
17:03 29.3 °C 10.9 °C 1012.4 hPa SE 1.6 km/h 8 km/h 32 % 0 mm
17:08 29.3 °C 11.4 °C 1012.4 hPa SE 3.2 km/h 9.7 km/h 33 % 0 mm
17:13 29.3 °C 11.4 °C 1012.4 hPa SSW 4.8 km/h 9.7 km/h 33 % 0 mm
17:18 29.4 °C 11.9 °C 1012.4 hPa SSW 4.8 km/h 9.7 km/h 34 % 0 mm
17:23 29.3 °C 10.4 °C 1012.4 hPa SW 3.2 km/h 9.7 km/h 31 % 0 mm
17:28 29.4 °C 11 °C 1012.4 hPa Calm   9.7 km/h 32 % 0 mm
17:33 29.7 °C 11.2 °C 1012.4 hPa NNE 4.8 km/h 9.7 km/h 32 % 0 mm
17:38 29.8 °C 10.9 °C 1012.4 hPa Calm   9.7 km/h 31 % 0 mm
17:43 29.8 °C 10.9 °C 1012.1 hPa Calm   6.4 km/h 31 % 0 mm
17:48 29.6 °C 10.2 °C 1012.1 hPa SSW 1.6 km/h 6.4 km/h 30 % 0 mm
17:53 29.6 °C 10.7 °C 1012.1 hPa Calm   9.7 km/h 31 % 0 mm
17:58 29.6 °C 10.7 °C 1012.1 hPa North 1.6 km/h 9.7 km/h 31 % 0 mm
18:03 29.4 °C 11.4 °C 1012.1 hPa Calm   9.7 km/h 33 % 0 mm
18:08 29.6 °C 11.2 °C 1012.1 hPa SSW 1.6 km/h 6.4 km/h 32 % 0 mm
18:13 29.4 °C 11 °C 1012.1 hPa SW 1.6 km/h 6.4 km/h 32 % 0 mm
18:18 29.2 °C 10.3 °C 1012.1 hPa South 1.6 km/h 9.7 km/h 31 % 0 mm
18:23 29.1 °C 10.7 °C 1012.1 hPa SSW 1.6 km/h 9.7 km/h 32 % 0 mm
18:28 29.1 °C 10.7 °C 1012.1 hPa SSE 3.2 km/h 9.7 km/h 32 % 0 mm
18:33 29.1 °C 11.2 °C 1012.1 hPa Calm   6.4 km/h 33 % 0 mm
18:39 29.3 °C 10.9 °C 1012.1 hPa Calm   6.4 km/h 32 % 0 mm
18:44 29.3 °C 10.9 °C 1012.1 hPa SSW 3.2 km/h 6.4 km/h 32 % 0 mm
18:49 29 °C 11.1 °C 1011.7 hPa SSW 3.2 km/h 6.4 km/h 33 % 0 mm
18:54 28.8 °C 10.5 °C 1011.7 hPa Calm   6.4 km/h 32 % 0 mm
18:59 29.1 °C 11.2 °C 1011.7 hPa Calm   6.4 km/h 33 % 0 mm
19:04 29.1 °C 11.2 °C 1011.7 hPa Calm   6.4 km/h 33 % 0 mm
19:09 29.2 °C 11.7 °C 1011.7 hPa Calm   4.8 km/h 34 % 0 mm
19:14 28.8 °C 10.9 °C 1011.7 hPa Calm   3.2 km/h 33 % 0 mm
19:19 28.3 °C 10.9 °C 1011.7 hPa Calm   3.2 km/h 34 % 0 mm
19:24 27.8 °C 10.5 °C 1011.7 hPa Calm   3.2 km/h 34 % 0 mm
19:29 27.4 °C 11.8 °C 1011.7 hPa Calm   3.2 km/h 38 % 0 mm
19:34 27 °C 10.7 °C 1011.7 hPa Calm   3.2 km/h 36 % 0 mm
19:39 26.7 °C 10.8 °C 1011.7 hPa Calm   3.2 km/h 37 % 0 mm
19:44 26.4 °C 10.9 °C 1012.1 hPa Calm   3.2 km/h 38 % 0 mm
19:49 26.2 °C 11.2 °C 1012.1 hPa Calm   1.6 km/h 39 % 0 mm
19:54 26 °C 11.4 °C 1012.1 hPa Calm   1.6 km/h 40 % 0 mm
19:59 25.7 °C 11.1 °C 1012.1 hPa Calm   1.6 km/h 40 % 0 mm
20:04 25.4 °C 11.6 °C 1012.1 hPa Calm   1.6 km/h 42 % 0 mm
20:09 25.1 °C 12 °C 1012.1 hPa Calm     44 % 0 mm
20:14 24.7 °C 11.6 °C 1012.1 hPa Calm     44 % 0 mm
20:19 24.4 °C 12.4 °C 1012.1 hPa Calm     47 % 0 mm
20:24 24 °C 12 °C 1012.4 hPa Calm     47 % 0 mm
20:29 23.6 °C 11.9 °C 1012.4 hPa Calm     48 % 0 mm
20:34 23.2 °C 11.9 °C 1012.4 hPa Calm     49 % 0 mm
20:39 22.9 °C 12.2 °C 1012.4 hPa ESE 1.6 km/h   51 % 0 mm
20:44 23.1 °C 12.4 °C 1012.4 hPa Calm   3.2 km/h 51 % 0 mm
20:49 23.3 °C 12.9 °C 1012.8 hPa SE 1.6 km/h 3.2 km/h 52 % 0 mm
20:54 23.7 °C 13.3 °C 1012.8 hPa SE 3.2 km/h 4.8 km/h 52 % 0 mm
20:59 23.9 °C 13.4 °C 1012.8 hPa SE 1.6 km/h 9.7 km/h 52 % 0 mm
21:04 24 °C 13.5 °C 1012.8 hPa ESE 1.6 km/h 9.7 km/h 52 % 0 mm
21:09 23.9 °C 13.4 °C 1012.8 hPa SE 4.8 km/h 9.7 km/h 52 % 0 mm
21:14 23.9 °C 13.7 °C 1012.8 hPa ESE 6.4 km/h 6.4 km/h 53 % 0 mm
21:19 24 °C 13.8 °C 1013.1 hPa SSE 4.8 km/h 11.3 km/h 53 % 0 mm
21:24 23.9 °C 13.7 °C 1013.1 hPa SSE 9.7 km/h 11.3 km/h 53 % 0 mm
21:29 23.7 °C 13.8 °C 1013.1 hPa SSW 4.8 km/h 11.3 km/h 54 % 0 mm
21:34 23.6 °C 13.7 °C 1013.1 hPa South 6.4 km/h 9.7 km/h 54 % 0 mm
21:39 23.6 °C 14 °C 1013.1 hPa South 4.8 km/h 9.7 km/h 55 % 0 mm
21:44 23.4 °C 13.8 °C 1013.4 hPa SSE 3.2 km/h 9.7 km/h 55 % 0 mm
21:49 23.3 °C 14 °C 1013.4 hPa South 3.2 km/h 9.7 km/h 56 % 0 mm
21:54 23.1 °C 14.1 °C 1013.4 hPa ESE 3.2 km/h 9.7 km/h 57 % 0 mm
21:59 22.9 °C 14.2 °C 1013.4 hPa Calm   8 km/h 58 % 0 mm
22:04 22.8 °C 14.1 °C 1013.4 hPa ESE 3.2 km/h 4.8 km/h 58 % 0 mm
22:09 22.7 °C 14.3 °C 1013.4 hPa SE 1.6 km/h 4.8 km/h 59 % 0 mm
22:14 22.6 °C 14.2 °C 1013.4 hPa South 4.8 km/h 4.8 km/h 59 % 0 mm
22:19 22.6 °C 14.4 °C 1013.4 hPa SSE 1.6 km/h 8 km/h 60 % 0 mm
22:24 22.5 °C 14.3 °C 1013.4 hPa SSE 4.8 km/h 8 km/h 60 % 0 mm
22:30 22.4 °C 14.5 °C 1013.4 hPa SE 3.2 km/h 8 km/h 61 % 0 mm
22:35 22.3 °C 14.4 °C 1013.4 hPa SW 4.8 km/h 8 km/h 61 % 0 mm
22:40 22.3 °C 14.4 °C 1013.4 hPa South 3.2 km/h 8 km/h 61 % 0 mm
22:45 22.2 °C 14.3 °C 1013.4 hPa SE 3.2 km/h 8 km/h 61 % 0 mm
22:50 22.2 °C 14.6 °C 1013.4 hPa SE 6.4 km/h 9.7 km/h 62 % 0 mm
22:55 22.1 °C 14.5 °C 1013.4 hPa SE 4.8 km/h 9.7 km/h 62 % 0 mm
23:00 22.1 °C 14.7 °C 1013.8 hPa SSW 3.2 km/h 9.7 km/h 63 % 0 mm
23:05 21.9 °C 14.5 °C 1013.8 hPa South 4.8 km/h 6.4 km/h 63 % 0 mm
23:10 21.7 °C 14.6 °C 1013.8 hPa South 1.6 km/h 6.4 km/h 64 % 0 mm
23:15 21.6 °C 14.7 °C 1013.8 hPa SSE 4.8 km/h 4.8 km/h 65 % 0 mm
23:20 21.4 °C 14.5 °C 1013.8 hPa SSW 3.2 km/h 6.4 km/h 65 % 0 mm
23:25 21.4 °C 14.8 °C 1013.8 hPa SSE 3.2 km/h 6.4 km/h 66 % 0 mm
23:30 21.3 °C 14.7 °C 1013.8 hPa SSW 1.6 km/h 6.4 km/h 66 % 0 mm
23:35 21.2 °C 14.8 °C 1013.8 hPa South 4.8 km/h 6.4 km/h 67 % 0 mm
23:40 21.2 °C 14.8 °C 1013.8 hPa SW 3.2 km/h 4.8 km/h 67 % 0 mm
23:43 21.1 °C 14.7 °C 1013.8 hPa SSW 3.2 km/h 4.8 km/h 67 % 0 mm
23:48 21 °C 14.9 °C 1013.8 hPa SSE 3.2 km/h 6.4 km/h 68 % 0 mm
23:53 20.9 °C 15 °C 1013.8 hPa South 1.6 km/h 6.4 km/h 69 % 0 mm
23:58 20.9 °C 15 °C 1013.8 hPa SSW 4.8 km/h 6.4 km/h 69 % 0 mm
Spring, Texas: Villages of Bridgestone
Compliments of Weather Underground - 3.25 mb

Script developed by  Jim McMurry - jmcmurry@mwt.net Adapted for the template by  Wim van der Kuil - Leuven-Template.eu

You find our weather info also at:

UK Metoffice

WeatherCloud

Weather Underground

Mid-South Weather Network

AWEKAS

Citizen Weather Observer Program (CWOP)

HAMweather, WeatherForYou, PWS Weather

Equipment we use:

Weather-station
Davis Vantage Vue

Weather-program
Meteohub

Weather-server
Debian 7.9 x86 (Guest)

Provider
DreamHost

Davis Vantage Vue

Meteohub

Debian 7.9 x86 (Guest)

DreamHost